Weather History for KBJJ - May, 2014

Change the Weather History Date:

Monday, May 26, 2014

  Actual Average (KCAK) Record (KCAK)
Temperature  
Mean Temperature 67 °F 62 °F  
Max Temperature 82 °F 72 °F 89 °F (1939)
Min Temperature 52 °F 52 °F 32 °F (1961)
Degree Days  
Heating Degree Days 0 5  
Month to date heating degree days 204  
Since 1 July heating degree days 6080  
Cooling Degree Days 2 2  
Month to date cooling degree days 25  
Year to date cooling degree days 31  
Growing Degree Days 17 (Base 50)    
Moisture  
Dew Point 54 °F    
Average Humidity 63    
Maximum Humidity 89    
Minimum Humidity 35    
Precipitation  
Precipitation 0.00 in 0.15 in 1.15 in (2015)
Month to date precipitation 3.57  
Year to date precipitation 15.02  
Snow  
Snow 0.00 in 0.00 in - ()
Month to date snowfall 0.1  
Since 1 July snowfall 47.5  
Snow Depth -    
Sea Level Pressure  
Sea Level Pressure 30.07 in    
Wind  
Wind Speed 3 mph (SW)    
Max Wind Speed 14 mph    
Max Gust Speed 18 mph    
Visibility 10 miles    
Events      
T = Trace of Precipitation, MM = Missing Value Source: NWS Daily Summary

Daily Weather History Graph

Daily Weather History Graph

Search for Another Location

Airport or City:

Trip Planner

Search our weather history database for the weather conditions in past years. The results will help you decide how hot, cold, wet, or windy it might be!

Date:

Astronomy

May. 26, 2014 Rise Set
Actual Time 6:01 AM EDT 8:48 PM EDT
Civil Twilight 5:29 AM EDT 9:20 PM EDT
Nautical Twilight 4:48 AM EDT 10:01 PM EDT
Astronomical Twilight 4:02 AM EDT 10:47 PM EDT
Moon 4:43 AM EDT (5/26) 6:48 PM EDT (5/26)
Length of Visible Light 15h 51m
Length of Day
14h 47m
Waning Crescent, 5% of the Moon is Illuminated
May 26
Waning Crescent
May 28
New
Jun 5
First Quarter
Jun 13
Full
Jun 19
Last Quarter

Hourly Weather History & Observations

Time (EDT) Temp. Heat Index Dew Point Humidity Pressure Visibility Wind Dir Wind Speed Gust Speed Precip Events Conditions
12:56 AM 57.9 °F - 52.0 °F 81% 30.12 in 10.0 mi Calm Calm - N/A   Clear
1:56 AM 55.0 °F - 50.0 °F 83% 30.12 in 10.0 mi Calm Calm - N/A   Clear
2:56 AM 55.0 °F - 51.1 °F 86% 30.12 in 10.0 mi Calm Calm - N/A   Clear
3:56 AM 54.0 °F - 50.0 °F 86% 30.12 in 10.0 mi Calm Calm - N/A   Clear
4:56 AM 53.1 °F - 50.0 °F 89% 30.13 in 10.0 mi Calm Calm - N/A   Clear
5:56 AM 52.0 °F - 48.0 °F 86% 30.13 in 9.0 mi Calm Calm - N/A   Clear
6:56 AM 55.0 °F - 51.1 °F 86% 30.14 in 8.0 mi Calm Calm - N/A   Clear
7:56 AM 62.1 °F - 54.0 °F 75% 30.14 in 10.0 mi Calm Calm - N/A   Clear
8:56 AM 69.1 °F - 53.1 °F 57% 30.14 in 10.0 mi WSW 8.1 mph - N/A   Clear
9:56 AM 73.0 °F - 54.0 °F 51% 30.13 in 10.0 mi WSW 11.5 mph - N/A   Clear
11:56 AM 78.1 °F - 52.0 °F 40% 30.12 in 10.0 mi WSW 10.4 mph - N/A   Clear
12:56 PM 79.0 °F - 53.1 °F 40% 30.10 in 10.0 mi West 13.8 mph - N/A   Clear
2:56 PM 81.0 °F - 52.0 °F 36% 30.06 in 10.0 mi WSW 8.1 mph 18.4 mph N/A   Clear
3:56 PM 82.0 °F - 52.0 °F 35% 30.05 in 10.0 mi SSW 12.7 mph 16.1 mph N/A   Mostly Cloudy
5:56 PM 81.0 °F 80.8 °F 55.9 °F 42% 30.01 in 10.0 mi West 8.1 mph - N/A   Clear
6:56 PM 81.0 °F 80.7 °F 55.0 °F 41% 29.99 in 8.0 mi SW 9.2 mph - N/A   Clear
7:56 PM 78.1 °F - 57.0 °F 48% 29.99 in 10.0 mi SW 5.8 mph - N/A   Partly Cloudy
8:56 PM 75.0 °F - 57.9 °F 55% 29.99 in 10.0 mi SSW 4.6 mph - N/A   Mostly Cloudy
9:56 PM 72.0 °F - 57.9 °F 61% 29.99 in 10.0 mi SW 6.9 mph - N/A   Clear
10:56 PM 71.1 °F - 59.0 °F 66% 29.99 in 10.0 mi WSW 6.9 mph - N/A   Clear
11:56 PM 69.1 °F - 59.0 °F 70% 29.99 in 10.0 mi WSW 5.8 mph - N/A   Clear